Greer, SC

1:58 PM EDT on September 28, 2016 (GMT -0400)
Greenville-Spartanburg International

Weather History for KGSP - December, 2014

Change the Weather History Date:

Saturday, December 27, 2014

  Actual Average Record
Temperature  
Mean Temperature 50 °F 42 °F  
Max Temperature 65 °F 52 °F 75 °F (1971)
Min Temperature 34 °F 32 °F 12 °F (1925)
Degree Days  
Heating Degree Days 15 23  
Month to date heating degree days 460 561  
Since 1 July heating degree days 1097 1114  
Cooling Degree Days 0 0  
Month to date cooling degree days 0 0  
Year to date cooling degree days 1693 1715  
Moisture  
Dew Point 35 °F    
Average Humidity 59    
Maximum Humidity 92    
Minimum Humidity 25    
Precipitation  
Precipitation 0.00 in 0.12 in 1.29 in (2011)
Month to date precipitation 3.21 3.63  
Year to date precipitation 49.78 46.71  
Snow  
Snow 0.00 in 0.00 in T in (1992)
Month to date snowfall 0.0 0.3  
Since 1 July snowfall T 0.4  
Snow Depth 0.00 in    
Sea Level Pressure  
Sea Level Pressure 30.24 in    
Wind  
Wind Speed 6 mph (SW)    
Max Wind Speed 17 mph    
Max Gust Speed 21 mph    
Visibility 10 miles    
Events      
T = Trace of Precipitation, MM = Missing Value Source: NWS Daily Summary

Daily Weather History Graph

Daily Weather History Graph

Search for Another Location

Airport or City:

Trip Planner

Search our weather history database for the weather conditions in past years. The results will help you decide how hot, cold, wet, or windy it might be!

Date:

Astronomy

Dec. 27, 2014 Rise Set
Actual Time 7:35 AM EST 5:24 PM EST
Civil Twilight 7:07 AM EST 5:52 PM EST
Nautical Twilight 6:35 AM EST 6:24 PM EST
Astronomical Twilight 6:04 AM EST 6:55 PM EST
Moon 11:35 AM EST (12/27) 11:58 PM EST (12/27)
Length of Visible Light 10h 45m
Length of Day
9h 49m
Waxing Crescent, 38% of the Moon is Illuminated
Dec 27
Waxing Crescent
Dec 28
First Quarter
Jan 4
Full
Jan 13
Last Quarter
Jan 20
New

Hourly Weather History & Observations

Time (EST) Temp. Windchill Dew Point Humidity Pressure Visibility Wind Dir Wind Speed Gust Speed Precip Events Conditions
12:53 AM 39.9 °F - 35.1 °F 83% 30.28 in 10.0 mi Calm Calm - N/A   Clear
1:53 AM 39.0 °F 36.8 °F 35.1 °F 86% 30.27 in 10.0 mi SSW 3.5 mph - N/A   Clear
2:53 AM 39.9 °F 37.8 °F 35.1 °F 83% 30.29 in 10.0 mi WNW 3.5 mph - N/A   Clear
3:53 AM 39.9 °F - 36.0 °F 86% 30.25 in 10.0 mi Calm Calm - N/A   Clear
4:53 AM 37.9 °F - 36.0 °F 93% 30.26 in 10.0 mi Calm Calm - N/A   Clear
5:53 AM 37.9 °F - 35.1 °F 89% 30.28 in 10.0 mi Calm Calm - N/A   Clear
6:53 AM 37.0 °F 32.4 °F 35.1 °F 93% 30.29 in 10.0 mi SSW 5.8 mph - N/A   Clear
7:53 AM 37.0 °F 34.5 °F 34.0 °F 89% 30.29 in 10.0 mi South 3.5 mph - N/A   Clear
8:53 AM 42.1 °F - 37.0 °F 82% 30.30 in 10.0 mi Calm Calm - N/A   Clear
9:53 AM 50.0 °F - 39.0 °F 66% 30.30 in 10.0 mi SSW 6.9 mph - N/A   Clear
10:53 AM 55.9 °F - 37.9 °F 51% 30.30 in 10.0 mi SSW 10.4 mph - N/A   Partly Cloudy
11:53 AM 59.0 °F - 37.0 °F 44% 30.29 in 10.0 mi SW 16.1 mph - N/A   Clear
12:53 PM 62.1 °F - 33.1 °F 34% 30.24 in 10.0 mi SW 9.2 mph - N/A   Clear
1:53 PM 62.6 °F - 30.2 °F 30% 30.21 in 10.0 mi SW 8.1 mph - N/A   Clear
2:53 PM 64.0 °F - 28.0 °F 26% 30.17 in 10.0 mi SSW 8.1 mph - N/A   Partly Cloudy
3:53 PM 63.0 °F - 26.1 °F 25% 30.18 in 10.0 mi SSW 10.4 mph - N/A   Scattered Clouds
4:53 PM 61.0 °F - 32.0 °F 34% 30.19 in 10.0 mi South 9.2 mph - N/A   Scattered Clouds
5:53 PM 55.9 °F - 30.9 °F 39% 30.20 in 10.0 mi SSW 6.9 mph - N/A   Clear
6:53 PM 55.0 °F - 33.1 °F 43% 30.22 in 10.0 mi WSW 4.6 mph - N/A   Partly Cloudy
7:53 PM 55.9 °F - 36.0 °F 47% 30.22 in 10.0 mi SW 8.1 mph - N/A   Overcast
8:53 PM 55.0 °F - 37.9 °F 53% 30.20 in 10.0 mi SW 5.8 mph - N/A   Partly Cloudy
9:53 PM 54.0 °F - 39.0 °F 57% 30.19 in 10.0 mi SSW 5.8 mph - N/A   Clear
10:53 PM 53.1 °F - 39.9 °F 61% 30.18 in 10.0 mi SW 5.8 mph - N/A   Clear
11:53 PM 51.1 °F - 42.1 °F 71% 30.18 in 10.0 mi WSW 5.8 mph - N/A   Clear